When you browse on this site, cookies collect data to enhance your experience and personalize the content and advertising you see.
Visit our Privacy Policy to learn more. By continuing to use the site, you agree to this use of cookies and data.
  • En España
  • Lista de países
  • Para 7 días
  • Temperatura del agua
  • Mapa Satelital
  • El tiempo en el mapa
  • Informadores
  • user-avatar
    Iniciar sesión

    Tiempo cada hora Doba

    Hoy, 21 Abril, Domingo

    Tiempo Temperatura Precipitaciones Viento Presión Humedad
    00:00 +36°C° 0 mm 3 mps 722 mmHg 36%
    01:00 +35°C° 0 mm 2 mps 722 mmHg 40%
    02:00 +35°C° 0 mm 2 mps 722 mmHg 42%
    03:00 +34°C° 0 mm 2 mps 722 mmHg 44%
    04:00 +34°C° 0 mm 2 mps 722 mmHg 46%
    05:00 +34°C° 0 mm 2 mps 723 mmHg 45%
    06:00 +34°C° 0 mm 2 mps 723 mmHg 45%
    07:00 +35°C° 0 mm 2 mps 723 mmHg 43%
    08:00 +37°C° 0 mm 2 mps 724 mmHg 38%
    09:00 +39°C° 0 mm 2 mps 724 mmHg 33%
    10:00 +42°C° 0 mm 1 mps 724 mmHg 28%
    11:00 +43°C° 0 mm 1 mps 724 mmHg 24%
    12:00 +45°C° 0 mm 1 mps 723 mmHg 19%
    13:00 +46°C° 0 mm 2 mps 722 mmHg 14%
    14:00 +46°C° 0 mm 3 mps 721 mmHg 13%
    15:00 +46°C° 0 mm 3 mps 721 mmHg 13%
    16:00 +45°C° 0 mm 3 mps 721 mmHg 13%
    17:00 +44°C° 0 mm 3 mps 721 mmHg 15%
    18:00 +41°C° 0 mm 2 mps 721 mmHg 16%
    19:00 +39°C° 0 mm 2 mps 721 mmHg 18%
    20:00 +37°C° 0 mm 1 mps 721 mmHg 19%
    21:00 +36°C° 0 mm 1 mps 721 mmHg 21%
    22:00 +35°C° 0 mm 1 mps 721 mmHg 22%
    23:00 +34°C° 0 mm 1 mps 721 mmHg 22%

    Mañana, 22 Abril, Lunes

    Tiempo Temperatura Precipitaciones Viento Presión Humedad
    00:00 +33°C° 0 mm 1 mps 721 mmHg 23%
    01:00 +34°C° 0 mm 2 mps 722 mmHg 24%
    02:00 +32°C° 0 mm 1 mps 722 mmHg 28%
    03:00 +31°C° 0 mm 1 mps 721 mmHg 32%
    04:00 +29°C° 0 mm 0 mps 721 mmHg 36%
    05:00 +31°C° 0 mm 1 mps 722 mmHg 38%
    06:00 +31°C° 0 mm 1 mps 722 mmHg 39%
    07:00 +32°C° 0 mm 2 mps 723 mmHg 41%
    08:00 +35°C° 0 mm 2 mps 723 mmHg 34%
    09:00 +38°C° 0 mm 2 mps 724 mmHg 28%
    10:00 +40°C° 0 mm 2 mps 724 mmHg 22%
    11:00 +41°C° 0 mm 2 mps 724 mmHg 19%
    12:00 +43°C° 0 mm 2 mps 723 mmHg 16%
    13:00 +45°C° 0 mm 2 mps 723 mmHg 13%
    14:00 +45°C° 0 mm 2 mps 722 mmHg 12%
    15:00 +45°C° 0 mm 2 mps 721 mmHg 12%
    16:00 +45°C° 0 mm 2 mps 721 mmHg 11%
    17:00 +42°C° 0 mm 1 mps 721 mmHg 12%
    18:00 +40°C° 0 mm 1 mps 721 mmHg 13%
    19:00 +35°C° 0 mm 0 mps 721 mmHg 15%
    20:00 +37°C° 0 mm 1 mps 721 mmHg 17%
    21:00 +36°C° 0 mm 1 mps 722 mmHg 19%
    22:00 +35°C° 0 mm 1 mps 722 mmHg 21%
    23:00 +34°C° 0 mm 1 mps 722 mmHg 25%

    Pasado mañana, 23 Abril, Martes

    Tiempo Temperatura Precipitaciones Viento Presión Humedad
    00:00 +33°C° 0 mm 1 mps 722 mmHg 30%
    01:00 +33°C° 0 mm 1 mps 721 mmHg 34%
    02:00 +32°C° 0 mm 1 mps 721 mmHg 35%
    03:00 +32°C° 0 mm 1 mps 721 mmHg 36%
    04:00 +31°C° 0 mm 1 mps 721 mmHg 37%
    05:00 +31°C° 0 mm 1 mps 721 mmHg 37%
    06:00 +32°C° 0 mm 1 mps 722 mmHg 37%
    07:00 +32°C° 0 mm 1 mps 722 mmHg 37%
    08:00 +34°C° 0 mm 1 mps 723 mmHg 33%
    09:00 +37°C° 0 mm 1 mps 724 mmHg 28%
    10:00 +41°C° 0 mm 1 mps 724 mmHg 24%
    11:00 +42°C° 0 mm 1 mps 724 mmHg 21%
    12:00 +44°C° 0 mm 1 mps 723 mmHg 17%
    13:00 +45°C° 0 mm 1 mps 722 mmHg 14%
    14:00 +45°C° 0 mm 1 mps 722 mmHg 13%
    15:00 +46°C° 0 mm 2 mps 721 mmHg 13%
    16:00 +45°C° 0 mm 2 mps 720 mmHg 13%
    17:00 +43°C° 0 mm 1 mps 721 mmHg 14%
    18:00 +41°C° 0 mm 1 mps 721 mmHg 16%
    19:00 +40°C° 0 mm 1 mps 721 mmHg 17%
    20:00 +39°C° 0 mm 1 mps 722 mmHg 18%
    21:00 +37°C° 0 mm 1 mps 722 mmHg 19%
    22:00 +36°C° 0 mm 1 mps 723 mmHg 20%
    23:00 +35°C° 0 mm 1 mps 723 mmHg 22%

    24 Abril, Miércoles

    Tiempo Temperatura Precipitaciones Viento Presión Humedad
    00:00 +34°C° 0 mm 1 mps 722 mmHg 24%
    01:00 +34°C° 0 mm 1 mps 722 mmHg 26%
    02:00 +33°C° 0 mm 1 mps 722 mmHg 31%
    03:00 +32°C° 0 mm 1 mps 721 mmHg 35%
    04:00 +32°C° 0 mm 2 mps 721 mmHg 39%
    05:00 +32°C° 0 mm 2 mps 722 mmHg 39%
    06:00 +34°C° 0 mm 2 mps 722 mmHg 38%
    07:00 +34°C° 0 mm 2 mps 723 mmHg 38%
    08:00 +37°C° 0 mm 1 mps 724 mmHg 32%
    09:00 +41°C° 0 mm 1 mps 724 mmHg 26%
    10:00 +45°C° 0 mm 1 mps 725 mmHg 20%
    11:00 +45°C° 0 mm 1 mps 724 mmHg 17%
    12:00 +46°C° 0 mm 1 mps 723 mmHg 15%
    13:00 +47°C° 0 mm 2 mps 723 mmHg 12%
    14:00 +47°C° 0 mm 2 mps 722 mmHg 11%
    15:00 +47°C° 0 mm 2 mps 721 mmHg 11%
    16:00 +47°C° 0 mm 2 mps 721 mmHg 10%
    17:00 +44°C° 0 mm 1 mps 721 mmHg 11%
    18:00 +42°C° 0 mm 1 mps 721 mmHg 12%
    19:00 +37°C° 0 mm 0 mps 722 mmHg 12%
    20:00 +36°C° 0 mm 0 mps 722 mmHg 13%
    21:00 +37°C° 0 mm 1 mps 723 mmHg 13%
    22:00 +36°C° 0 mm 1 mps 723 mmHg 13%
    23:00 +35°C° 0 mm 1 mps 723 mmHg 16%

    25 Abril, Jueves

    Tiempo Temperatura Precipitaciones Viento Presión Humedad
    00:00 +34°C° 0 mm 1 mps 723 mmHg 19%
    01:00 +31°C° 0 mm 0 mps 722 mmHg 23%
    02:00 +33°C° 0 mm 1 mps 722 mmHg 24%
    03:00 +33°C° 0 mm 1 mps 722 mmHg 26%
    04:00 +32°C° 0 mm 1 mps 722 mmHg 28%
    05:00 +33°C° 0 mm 1 mps 723 mmHg 30%
    06:00 +33°C° 0 mm 1 mps 723 mmHg 31%
    07:00 +34°C° 0 mm 1 mps 724 mmHg 33%
    08:00 +37°C° 0 mm 1 mps 724 mmHg 28%
    09:00 +41°C° 0 mm 1 mps 724 mmHg 22%
    10:00 +45°C° 0 mm 1 mps 724 mmHg 17%
    11:00 +47°C° 0 mm 1 mps 724 mmHg 14%
    12:00 +49°C° 0 mm 1 mps 723 mmHg 11%
    13:00 +47°C° 0 mm 0 mps 722 mmHg 9%
    14:00 +49°C° 0 mm 1 mps 721 mmHg 8%
    15:00 +48°C° 0 mm 1 mps 721 mmHg 8%
    16:00 +47°C° 0 mm 1 mps 720 mmHg 8%
    17:00 +45°C° 0 mm 1 mps 720 mmHg 8%
    18:00 +43°C° 0 mm 1 mps 720 mmHg 8%
    19:00 +41°C° 0 mm 1 mps 721 mmHg 9%
    20:00 +40°C° 0 mm 1 mps 721 mmHg 9%
    21:00 +39°C° 0 mm 1 mps 722 mmHg 9%
    22:00 +37°C° 0 mm 1 mps 722 mmHg 9%
    23:00 +36°C° 0 mm 1 mps 722 mmHg 10%

    26 Abril, Viernes

    Tiempo Temperatura Precipitaciones Viento Presión Humedad
    00:00 +35°C° 0 mm 1 mps 721 mmHg 11%
    01:00 +32°C° 0 mm 0 mps 721 mmHg 12%
    02:00 +33°C° 0 mm 1 mps 721 mmHg 14%
    03:00 +32°C° 0 mm 1 mps 721 mmHg 16%
    04:00 +31°C° 0 mm 1 mps 721 mmHg 17%
    05:00 +32°C° 0 mm 1 mps 722 mmHg 17%
    06:00 +32°C° 0 mm 1 mps 722 mmHg 17%
    07:00 +33°C° 0 mm 1 mps 723 mmHg 17%
    08:00 +36°C° 0 mm 1 mps 723 mmHg 13%
    09:00 +40°C° 0 mm 1 mps 724 mmHg 9%
    10:00 +43°C° 0 mm 1 mps 724 mmHg 5%
    11:00 +45°C° 0 mm 1 mps 723 mmHg 5%
    12:00 +46°C° 0 mm 1 mps 722 mmHg 4%
    13:00 +47°C° 0 mm 1 mps 722 mmHg 3%
    14:00 +47°C° 0 mm 1 mps 721 mmHg 3%
    15:00 +47°C° 0 mm 2 mps 720 mmHg 3%
    16:00 +47°C° 0 mm 2 mps 720 mmHg 3%
    17:00 +43°C° 0 mm 2 mps 720 mmHg 4%
    18:00 +41°C° 0 mm 2 mps 720 mmHg 4%
    19:00 +39°C° 0 mm 2 mps 720 mmHg 5%
    20:00 +38°C° 0 mm 2 mps 721 mmHg 5%
    21:00 +37°C° 0 mm 2 mps 721 mmHg 5%
    22:00 +37°C° 0 mm 2 mps 721 mmHg 5%
    23:00 +35°C° 0 mm 1 mps 721 mmHg 5%
    Mostrar más